Star Trek: Starfleet Academy

Информация о пользователе

Привет, Гость! Войдите или зарегистрируйтесь.


Вы здесь » Star Trek: Starfleet Academy » Партнерство


Партнерство

Тем 1 страница 20 из 20

Тема Ответов Просмотров Последнее сообщение
123 537 2018-04-18 19:37:46  PR
2 Важно: Star Wars Medley  Joan Crise
12 62 2018-04-16 23:28:18  PR
3 Важно: Star Wars: Decadence  Joan Crise
2 6 2018-04-07 15:06:20  PR
59 883 2018-04-02 10:16:11  Joan Crise
5 Важно: Space Fiction  Joan Crise
6 37 2018-01-20 17:45:27  PR
6 Важно: Закрыта Мы в каталогах  Starfleet Academy
0 250 2015-04-14 22:02:16  Starfleet Academy
38 197 2018-04-06 16:34:20  PR
20 114 2018-03-02 23:09:05  PR
22 354 2018-02-04 21:51:05  PR
36 159 2018-01-11 10:08:15  PR
11 Planetary Moe  Joan Crise
6 35 2017-12-05 13:43:28  PR
77 248 2017-08-18 14:23:04  PR
32 126 2017-07-17 18:24:40  PR
40 176 2017-06-01 21:26:44  PR
17 75 2017-04-01 00:30:50  PR
19 119 2017-02-05 09:59:51  PR
17 Мийрон  Joan Crise
5 55 2016-02-25 22:43:03  Мийрон
18 New Jersey  Joan Crise
2 38 2016-02-16 20:50:44  PR
19 Serifa  Joan Crise
0 19 2015-10-09 11:21:51  Joan Crise
2 223 2015-04-03 10:51:12  PR

Вы здесь » Star Trek: Starfleet Academy » Партнерство


Рейтинг форумов | Создать форум бесплатно © 2007–2017 «QuadroSystems» LLC